FW8327 Weather Reports


time (UTC)temp
C
wind
direction
speed
KPH
gust
KPH
rain 1hr
cm
rain 24hr
cm
rain mn
cm
humidity
%
barometer
mb
20260504110705 9 152 0.0 0.0 0.00 0.00 0.00 85 1005.8
20260504110201 9 146 0.0 0.0 0.00 0.00 0.00 84 1005.9
20260504100125 10 164 0.0 0.0 0.00 0.00 0.00 81 1005.7
20260504081518 10 163 0.0 0.0 0.00 0.00 0.00 80 1006.3
20260504081014 10 178 0.0 0.0 0.00 0.00 0.00 80 1006.4
20260504080510 10 158 0.0 0.0 0.00 0.00 0.00 80 1006.4
20260504050317 11 154 0.0 0.0 0.00 0.00 0.00 74 1007.7
20260504045814 11 150 0.0 0.0 0.00 0.00 0.00 73 1007.7
20260504045314 11 136 0.0 0.0 0.00 0.00 0.00 73 1007.8
20260504044812 11 154 0.0 0.0 0.00 0.00 0.00 73 1007.8
20260504044309 11 157 0.0 0.0 0.00 0.00 0.00 73 1007.7
20260504043806 11 164 0.0 0.0 0.00 0.00 0.00 73 1008.0
20260504043303 11 168 0.0 0.0 0.00 0.00 0.00 73 1007.9
20260504042801 11 154 0.0 0.0 0.00 0.00 0.00 73 1007.7
20260504042257 11 168 0.0 0.0 0.00 0.00 0.00 73 1008.1
20260504041753 11 164 0.0 0.0 0.00 0.00 0.00 73 1008.2
20260504041249 11 148 0.0 0.0 0.00 0.00 0.00 73 1008.1
20260504040745 11 146 1.6 4.8 0.00 0.00 0.00 73 1008.0
20260504040243 11 160 0.0 0.0 0.00 0.00 0.00 73 1008.1
20260504035739 11 164 0.0 0.0 0.00 0.00 0.00 73 1008.2
20260504035236 11 157 0.0 0.0 0.00 0.00 0.00 73 1008.2
20260504034734 11 162 0.0 0.0 0.00 0.00 0.00 73 1008.2
20260504034231 11 139 0.0 1.6 0.00 0.00 0.00 73 1008.5
20260504033729 11 152 0.0 0.0 0.00 0.00 0.00 73 1008.3
20260504033226 11 143 0.0 0.0 0.00 0.00 0.00 73 1008.4
20260504032723 11 144 0.0 0.0 0.00 0.00 0.00 72 1008.5
20260504032220 12 146 0.0 0.0 0.00 0.00 0.00 72 1008.8
20260504031711 12 157 0.0 0.0 0.00 0.00 0.00 71 1008.7
20260504031208 12 172 0.0 0.0 0.00 0.00 0.00 71 1008.6
20260504030704 12 165 0.0 0.0 0.00 0.00 0.00 71 1008.7
20260504030202 12 156 0.0 0.0 0.00 0.00 0.00 71 1008.4
20260504025658 12 156 0.0 0.0 0.00 0.00 0.00 71 1008.7
20260504025155 12 149 0.0 0.0 0.00 0.00 0.00 71 1008.7
20260504024652 12 143 0.0 0.0 0.00 0.00 0.00 71 1008.8
20260504024148 12 145 0.0 0.0 0.00 0.00 0.00 71 1008.8
20260504023645 12 146 0.0 0.0 0.00 0.00 0.00 71 1008.8
20260504023141 12 144 0.0 0.0 0.00 0.00 0.00 71 1008.8
20260504022637 12 149 0.0 0.0 0.00 0.00 0.00 72 1008.7
20260504022133 12 157 0.0 0.0 0.00 0.00 0.00 72 1008.6
20260504021632 12 161 0.0 0.0 0.00 0.00 0.00 72 1008.7
20260504021128 12 138 0.0 0.0 0.00 0.00 0.00 72 1008.6
20260504020625 12 145 0.0 0.0 0.00 0.00 0.00 73 1008.8
20260504020121 12 166 0.0 0.0 0.00 0.00 0.00 73 1008.7
20260504015618 12 153 0.0 0.0 0.00 0.00 0.00 72 1008.7
20260504015114 12 151 0.0 0.0 0.00 0.00 0.00 71 1008.4
20260504014610 12 149 0.0 0.0 0.00 0.00 0.00 71 1008.5
20260504014107 12 152 0.0 0.0 0.00 0.00 0.00 69 1008.6
20260504013605 12 155 0.0 0.0 0.00 0.00 0.00 69 1008.6
20260504013102 13 164 0.0 0.0 0.00 0.00 0.00 68 1008.9
20260504012559 13 152 0.0 0.0 0.00 0.00 0.00 68 1008.8
20260504012057 13 150 0.0 0.0 0.00 0.00 0.00 67 1008.5
20260504011554 13 159 0.0 0.0 0.00 0.00 0.00 67 1008.7
20260504011050 13 146 0.0 0.0 0.00 0.00 0.00 67 1008.5
20260504010545 13 150 0.0 0.0 0.00 0.00 0.00 66 1008.8
20260504010042 13 159 0.0 0.0 0.00 0.00 0.00 66 1008.6
20260504005538 13 151 0.0 0.0 0.00 0.00 0.00 65 1008.8
20260504005036 13 153 0.0 0.0 0.00 0.00 0.00 65 1008.8
20260504004534 13 155 0.0 0.0 0.00 0.00 0.00 65 1008.8
20260504004030 13 159 0.0 0.0 0.00 0.00 0.00 64 1008.7
20260504003526 13 162 0.0 0.0 0.00 0.00 0.00 63 1008.9
20260504003023 13 154 0.0 0.0 0.00 0.00 0.00 63 1009.0
20260504002520 13 137 0.0 0.0 0.00 0.00 0.00 64 1009.0
20260504002018 13 195 0.0 0.0 0.00 0.00 0.00 63 1008.7
20260504001515 13 160 0.0 0.0 0.00 0.00 0.00 63 1008.8
20260504001011 13 166 0.0 0.0 0.00 0.00 0.00 63 1008.9
20260504000509 13 154 0.0 0.0 0.00 0.00 0.00 63 1009.1
20260504000006 13 126 0.0 0.0 0.00 0.00 0.00 63 1008.9
20260503235504 14 144 0.0 0.0 0.00 0.00 0.00 63 1009.0
20260503235001 14 154 0.0 0.0 0.00 0.00 0.00 61 1009.1
20260503234458 14 143 0.0 0.0 0.00 0.00 0.00 61 1009.3
20260503233956 14 183 0.0 0.0 0.00 0.00 0.00 61 1009.1
20260503233452 14 171 0.0 0.0 0.00 0.00 0.00 61 1009.1
20260503232949 14 139 0.0 0.0 0.00 0.00 0.00 62 1009.4
20260503232446 15 185 0.0 0.0 0.00 0.00 0.00 60 1009.5
20260503231944 15 159 0.0 0.0 0.00 0.00 0.00 61 1009.3
20260503231441 15 154 0.0 0.0 0.00 0.00 0.00 59 1009.5
20260503230937 15 144 0.0 0.0 0.00 0.00 0.00 59 1009.3
20260503230434 15 261 0.0 0.0 0.00 0.00 0.00 59 1009.7
20260503225932 15 161 0.0 0.0 0.00 0.00 0.00 61 1009.5
20260503225428 15 171 0.0 0.0 0.00 0.00 0.00 59 1009.7
20260503224924 15 121 0.0 0.0 0.00 0.00 0.00 60 1009.8
20260503224421 15 170 0.0 0.0 0.00 0.00 0.00 59 1009.8
20260503223919 15 184 0.0 0.0 0.00 0.00 0.00 60 1009.6
20260503223416 15 228 0.0 0.0 0.00 0.00 0.00 57 1009.6
20260503222911 16 178 0.0 0.0 0.00 0.00 0.00 57 1009.5
20260503222409 16 237 0.0 1.6 0.00 0.00 0.00 58 1009.6
20260503221907 15 163 0.0 0.0 0.00 0.00 0.00 57 1009.6
20260503221406 15 173 0.0 1.6 0.00 0.00 0.00 56 1009.7
20260503220902 15 150 0.0 0.0 0.00 0.00 0.00 59 1009.8
20260503220358 15 161 0.0 0.0 0.00 0.00 0.00 58 1009.7
20260503215855 15 169 0.0 0.0 0.00 0.00 0.00 58 1009.7
20260503215352 15 159 0.0 0.0 0.00 0.00 0.00 57 1009.6
20260503214850 15 124 0.0 0.0 0.00 0.00 0.00 58 1009.7
20260503214347 15 156 0.0 0.0 0.00 0.00 0.00 59 1009.9
20260503213844 15 177 0.0 0.0 0.00 0.00 0.00 57 1009.9
20260503213342 15 155 0.0 0.0 0.00 0.00 0.00 59 1009.8
20260503212839 15 158 0.0 0.0 0.00 0.00 0.00 58 1010.1
20260503212337 15 185 0.0 0.0 0.00 0.00 0.00 55 1010.0
20260503211834 16 214 0.0 0.0 0.00 0.00 0.00 55 1010.2
20260503211330 16 25 0.0 0.0 0.00 0.00 0.00 55 1010.3
20260503210825 15 62 1.6 3.2 0.00 0.00 0.00 56 1010.5
20260503210323 16 133 0.0 0.0 0.00 0.00 0.00 55 1010.5
20260503205818 15 182 0.0 0.0 0.00 0.00 0.00 59 1010.9
20260503205315 15 161 0.0 0.0 0.00 0.00 0.00 58 1010.7
20260503204811 15 157 0.0 0.0 0.00 0.00 0.00 59 1011.0
20260503204309 15 123 1.6 4.8 0.00 0.00 0.00 58 1010.9
20260503203805 15 134 0.0 0.0 0.00 0.00 0.00 60 1011.2
20260503203303 15 146 0.0 0.0 0.00 0.00 0.00 61 1011.0
20260503202754 15 161 0.0 0.0 0.00 0.00 0.00 59 1011.4
20260503202252 15 243 0.0 0.0 0.00 0.00 0.00 63 1011.4
20260503201750 13 236 0.0 0.0 0.00 0.00 0.00 66 1011.4
20260503201247 13 154 0.0 0.0 0.00 0.00 0.00 71 1011.5
20260503200744 12 146 0.0 0.0 0.00 0.00 0.00 74 1011.6
20260503200240 12 109 0.0 0.0 0.00 0.00 0.00 75 1011.7
20260503195737 12 114 0.0 0.0 0.00 0.00 0.00 76 1011.9
20260503195234 12 148 0.0 0.0 0.00 0.00 0.00 80 1012.3
20260503194732 11 144 0.0 0.0 0.00 0.00 0.00 78 1012.5
20260503194227 11 93 0.0 0.0 0.00 0.00 0.00 79 1012.8
20260503193723 11 110 0.0 0.0 0.00 0.00 0.00 79 1013.0
20260503193220 11 61 0.0 0.0 0.00 0.00 0.00 81 1012.7
20260503192715 11 142 0.0 0.0 0.00 0.00 0.00 82 1013.2
20260503192211 10 142 0.0 0.0 0.00 0.00 0.00 83 1013.2
20260503191708 10 143 0.0 0.0 0.00 0.00 0.00 83 1012.9
20260503191205 10 152 0.0 0.0 0.00 0.00 0.00 86 1013.4
20260503190702 10 148 0.0 0.0 0.00 0.00 0.00 86 1013.6
20260503190158 10 154 0.0 0.0 0.00 0.00 0.00 79 1014.0
20260503185655 10 166 0.0 0.0 0.00 0.00 0.00 78 1013.9
20260503185150 10 192 0.0 0.0 0.00 0.00 0.00 76 1013.9
20260503184645 10 161 0.0 0.0 0.00 0.00 0.00 77 1013.8
20260503184142 10 159 0.0 0.0 0.00 0.00 0.00 78 1014.1
20260503183638 10 173 0.0 0.0 0.00 0.00 0.00 77 1013.9
20260503183136 10 154 0.0 0.0 0.00 0.00 0.00 78 1014.2
20260503182634 10 171 0.0 0.0 0.00 0.00 0.00 77 1014.1
20260503182132 11 230 0.0 0.0 0.00 0.00 0.00 75 1014.3
20260503181629 11 208 0.0 3.2 0.00 0.00 0.00 72 1014.4
20260503181126 11 285 1.6 3.2 0.00 0.00 0.00 68 1014.5
20260503180623 12 189 0.0 1.6 0.00 0.00 0.00 62 1014.1
20260503180121 13 188 0.0 1.6 0.00 0.00 0.00 56 1014.2
20260503175617 14 96 0.0 0.0 0.00 0.00 0.00 55 1014.1
20260503175114 14 220 0.0 0.0 0.00 0.00 0.00 56 1013.9
20260503174611 14 129 0.0 1.6 0.00 0.00 0.00 54 1014.1
20260503174108 15 239 0.0 1.6 0.00 0.00 0.00 55 1014.4
20260503173603 15 71 0.0 0.0 0.00 0.00 0.00 56 1014.3
20260503173100 15 144 0.0 0.0 0.00 0.00 0.00 55 1014.5
20260503172557 15 267 1.6 3.2 0.00 0.00 0.00 55 1014.6
20260503172054 15 180 0.0 0.0 0.00 0.00 0.00 55 1014.6
20260503171550 15 170 1.6 4.8 0.00 0.00 0.00 53 1014.5
20260503171048 15 16 1.6 3.2 0.00 0.00 0.00 53 1014.7
20260503170544 15 206 0.0 0.0 0.00 0.00 0.00 53 1014.8
20260503150930 13 192 0.0 1.6 0.00 0.00 0.00 55 1016.0
20260503150426 13 154 0.0 0.0 0.00 0.00 0.00 55 1015.9
20260503131314 10 166 0.0 0.0 0.00 0.00 0.00 61 1016.3
20260503130812 9 143 0.0 0.0 0.00 0.00 0.00 62 1016.2
20260503130309 9 174 1.6 3.2 0.00 0.00 0.00 62 1016.1